DW6936 Weather Reports


Display with metric or nautical units.
time (UTC)temp
F
wind
direction
speed
MPH
gust
MPH
rain 1hr
in
rain 24hr
in
rain mn
in
humidity
%
barometer
mb
20170817191910 69 291 7.0 8.0 0.00 0.00 0.00 76 1021.0
20170817181909 67 233 5.0 9.0 0.00 0.00 0.00 77 1020.8
20170817180909 67 201 8.0 9.0 0.00 0.00 0.00 78 1020.8
20170817172907 67 284 5.0 7.0 0.00 0.00 0.00 77 1020.5
20170817171907 67 299 2.0 5.0 0.00 0.00 0.00 77 1020.5
20170817164906 65 210 0.0 0.0 0.00 0.00 0.00 80 1020.4
20170817163906 65 225 0.0 5.0 0.00 0.00 0.00 80 1020.4
20170817160905 63 199 0.0 0.0 0.00 0.00 0.00 83 1020.4
20170817154905 62 178 0.0 0.0 0.00 0.00 0.00 83 1020.3
20170817152904 62 202 4.0 6.0 0.00 0.00 0.00 82 1020.4
20170817150903 61 144 1.0 7.0 0.00 0.00 0.00 84 1020.3
20170817142903 60 128 0.0 5.0 0.00 0.00 0.00 86 1019.9
20170817141902 59 122 4.0 5.0 0.00 0.00 0.00 87 1019.7
20170817140902 59 119 2.0 6.0 0.00 0.00 0.00 87 1019.4
20170817130900 59 127 4.0 7.0 0.00 0.00 0.00 88 1019.0
20170817125900 59 128 3.0 6.0 0.00 0.00 0.00 88 1019.0
20170817124859 59 131 3.0 4.0 0.00 0.00 0.00 89 1019.0
20170817123900 58 131 3.0 5.0 0.00 0.00 0.00 90 1018.9
20170817122859 58 129 3.0 3.0 0.00 0.00 0.00 91 1018.8
20170817113857 58 129 0.0 0.0 0.00 0.00 0.00 89 1018.5
20170817110857 59 129 0.0 5.0 0.00 0.00 0.00 89 1018.3
20170817104856 59 131 0.0 5.0 0.00 0.00 0.00 89 1018.1
20170817103856 59 132 2.0 4.0 0.00 0.00 0.00 89 1018.1
20170817095855 59 119 1.0 6.0 0.00 0.00 0.00 89 1017.9
20170817094855 59 110 3.0 6.0 0.00 0.00 0.00 89 1017.9
20170817093854 59 112 5.0 5.0 0.00 0.00 0.00 90 1017.9
20170817090913 60 102 0.0 3.0 0.00 0.00 0.00 89 1017.6
20170817085913 60 108 2.0 4.0 0.00 0.00 0.00 88 1017.8
20170817075911 61 130 4.0 6.0 0.00 0.00 0.00 88 1017.4
20170817074911 61 133 2.0 6.0 0.00 0.00 0.00 88 1017.2
20170817072911 60 99 3.0 5.0 0.00 0.00 0.00 89 1017.3
20170817064909 61 127 1.0 3.0 0.00 0.00 0.00 87 1017.0
20170817062909 62 127 0.0 4.0 0.00 0.00 0.00 86 1016.9
20170817061909 62 127 3.0 5.0 0.00 0.00 0.00 86 1016.8
20170817054908 63 131 2.0 3.0 0.00 0.00 0.00 84 1016.6
20170817053908 63 131 2.0 5.0 0.00 0.00 0.00 83 1016.6
20170817051907 64 107 2.0 3.0 0.00 0.00 0.00 82 1016.6
20170817041905 66 129 3.0 7.0 0.00 0.00 0.00 79 1016.2
20170817033904 67 144 4.0 6.0 0.00 0.00 0.00 76 1015.8
20170817030903 69 157 5.0 7.0 0.00 0.00 0.00 74 1015.5
20170817025903 69 125 2.0 6.0 0.00 0.00 0.00 74 1015.5
20170817024903 69 143 3.0 8.0 0.00 0.00 0.00 74 1015.6
20170817021902 71 219 0.0 6.0 0.00 0.00 0.00 72 1015.7
20170817014901 73 174 2.0 7.0 0.00 0.00 0.00 66 1015.8
20170817013901 73 139 2.0 7.0 0.00 0.00 0.00 65 1015.8
20170817003859 76 158 4.0 9.0 0.00 0.00 0.00 60 1016.1
20170817001859 75 214 2.0 10.0 0.00 0.00 0.00 65 1016.3
20170816235858 74 194 3.0 8.0 0.00 0.00 0.00 67 1016.4
20170816234858 74 220 5.0 8.0 0.00 0.00 0.00 65 1016.5
20170816232857 74 223 7.0 10.0 0.00 0.00 0.00 65 1016.8
20170816230857 73 189 9.0 12.0 0.00 0.00 0.00 68 1017.1
20170816225856 73 209 12.0 12.0 0.00 0.00 0.00 67 1017.0
20170816224856 73 193 5.0 11.0 0.00 0.00 0.00 66 1017.1
20170816223855 73 218 6.0 11.0 0.00 0.00 0.00 66 1017.1
20170816222856 73 191 7.0 11.0 0.00 0.00 0.00 66 1017.1
20170816215855 72 216 8.0 12.0 0.00 0.00 0.00 67 1017.5
20170816213855 72 196 10.0 11.0 0.00 0.00 0.00 67 1017.4
20170816210900 70 209 5.0 10.0 0.00 0.00 0.00 70 1017.8
20170816205859 70 208 6.0 9.0 0.00 0.00 0.00 71 1017.8
20170816200858 67 225 3.0 7.0 0.00 0.00 0.00 75 1018.0
20170816195858 67 197 3.0 9.0 0.00 0.00 0.00 77 1018.1
20170816194857 67 198 7.0 8.0 0.00 0.00 0.00 78 1018.3